Location: ???? ?????
(30.0052°N, 31.2891°E)
Time: 16:02:34
(UTC+00:00)

Hubble Space Telescope - Pass Details

Date: 27 September 2024
Orbit: 503 x 507 km, 28.5° (Epoch: 12 October)

Event Time Altitude Azimuth Distance (km) Brightness Sun altitude
Exits shadow 03:01:59 12° 239° (WSW) 1,592 2.6 -10.4°
Maximum altitude 03:05:27 45° 167° (SSE) 683 1.4 -9.6°
Drops below altitude 10° 03:09:12 10° 93° (E) 1,698 5.0 -8.8°
Sets 03:11:29 0° 87° (E) 2,582 6.8 -8.3°
